GFSNGP_con_lsi_000.txt.gz
Lid_Strength_Index
12 12 13 13 13 13 14 13 16 14 14 14 17 16 16 15 15 15 15 13 13 13 13 12 12 12 13 13 13 13 14 14 13 14 15 14 14 15 16 16 16 17 17 17
15 13 14 14 13 14 13 13 13 13 15 17 16 14 14 15 15 16 15 14 12 12 11 12 12 13 13 13 13 13 14 14 13 13 14 15 15 15 16 16 17 17 17 17
17 14 14 17 15 13 13 11 14 16 17 16 15 14 15 14 15 16 15 14 12 13 13 13 12 12 13 13 12 13 13 13 13 14 15 14 15 16 17 17 17 17 17 18
16 19 22 16 13 13 15 15 14 15 16 15 15 14 13 11 13 14 13 12 12 14 14 14 13 13 13 12 12 13 13 13 14 14 15 16 17 17 18 18 17 18 17 17
20 24 17 15 15 15 15 16 14 14 13 13 13 14 15 13 12 12 12 11 12 13 14 14 14 14 13 15 14 13 13 13 14 15 15 16 17 17 17 17 18 17 17 17
22 22 27 17 14 13 13 20 16 14 14 14 14 18 16 12 11 11 10 12 13 13 14 14 14 13 15 16 15 15 14 14 15 16 17 17 18 18 17 16 17 17 18 17
24 26 23 17 15 13 23 21 17 14 13 13 15 14 12 11 12 11 12 13 13 13 14 14 13 15 16 16 16 15 16 16 14 14 16 17 16 19 18 18 19 19 20 19
30 30 27 14 14 18 16 14 14 13 11 12 12 11 11 12 12 12 13 13 13 14 15 14 14 15 16 17 16 16 16 16 15 15 15 17 18 18 18 18 19 21 21 22
20 21 13 11 12 10 11 13 12 11 10 11 11 12 12 13 13 13 13 14 14 15 16 15 15 16 17 17 17 18 18 18 18 17 14 16 17 18 19 19 19 21 21 22
15 13 12 11 10 10 10 10 10 10 10 10 11 12 13 13 13 14 14 14 14 15 16 17 16 16 17 18 18 20 21 21 20 20 17 15 16 17 18 19 19 19 21 21
15 13 11 11 10 9 9 9 10 10 11 11 12 13 12 13 14 13 14 14 14 15 16 17 17 18 19 19 20 22 22 22 22 21 20 16 16 16 17 17 17 18 19 19
15 11 10 10 9 9 10 10 11 12 12 11 11 12 12 14 13 14 15 14 15 16 17 18 19 20 20 21 22 23 24 23 22 21 20 18 17 17 14 14 15 14 15 17
10 8 8 7 9 11 12 12 12 13 12 14 13 13 14 15 15 15 16 17 18 19 20 21 22 22 22 22 23 24 25 25 24 23 21 20 17 18 19 17 14 14 14 14
10 11 9 10 12 13 12 13 14 14 14 14 14 15 16 16 17 18 19 20 20 21 22 23 23 24 23 23 23 24 24 23 23 23 22 20 18 17 17 19 20 18 14 14
15 14 14 14 14 14 15 15 17 17 16 17 16 17 18 19 20 21 21 22 23 23 24 24 25 25 24 24 24 24 24 23 22 21 20 19 18 16 17 18 19 19 17 14
17 16 17 18 17 17 18 18 19 18 18 18 19 20 20 21 22 23 23 23 24 26 25 26 26 25 25 25 24 24 23 23 22 21 21 20 18 16 17 18 18 19 18 17
20 20 21 22 20 20 20 19 19 19 20 21 22 22 22 23 23 23 24 25 27 27 27 27 27 25 25 24 24 24 23 23 22 21 20 19 17 17 17 18 18 17 17 15
21 21 21 21 21 21 21 20 21 22 23 22 22 23 24 24 24 25 27 28 28 28 27 26 25 25 24 23 23 22 22 22 22 21 19 17 16 17 17 17 17 17 16 15
23 23 22 21 21 22 23 23 23 23 23 23 24 24 23 23 23 26 27 28 29 29 27 25 22 23 24 23 20 19 19 19 18 17 17 16 17 17 17 16 16 15 15 14
25 24 23 24 23 24 25 24 24 25 25 25 24 24 24 23 24 25 27 28 28 27 26 25 24 24 23 23 21 21 21 20 19 18 18 19 19 19 18 18 18 16 19 20
27 26 26 26 25 25 26 26 26 27 26 24 24 24 24 24 25 25 26 28 27 26 26 25 25 24 23 23 23 23 22 22 21 20 20 20 20 20 20 21 22 22 22 23
29 30 28 27 28 28 27 28 28 26 25 24 23 23 24 25 25 25 25 26 25 25 25 25 24 24 24 24 24 24 24 24 23 23 22 22 22 22 23 23 23 23 23 23
31 31 29 29 29 28 27 28 27 25 24 24 24 24 25 25 25 26 27 25 25 24 25 25 23 23 23 25 25 25 25 26 25 25 25 24 24 24 25 25 24 24 24 24
35 33 32 31 31 32 30 29 26 24 23 23 23 23 25 26 25 25 24 24 24 24 25 24 23 22 24 25 26 26 26 26 25 25 25 25 25 25 26 26 26 26 25 26
33 33 36 33 31 28 26 24 24 24 23 23 23 23 24 23 25 25 25 25 24 25 25 24 22 23 26 27 27 26 26 26 26 26 26 26 26 26 26 26 26 26 26 26
34 30 27 26 25 24 24 23 24 24 24 24 24 24 24 24 24 24 25 25 25 25 26 26 26 26 26 26 26 26 26 27 27 26 26 26 26 26 26 26 26 26 26 26
27 24 25 26 25 25 24 24 24 24 24 24 25 24 24 24 24 24 25 25 26 26 26 26 26 26 26 26 26 26 26 26 26 26 26 26 26 26 26 26 27 26 26 26

GFSNGP_con_lsi_003.txt.gz
Lid_Strength_Index
13 12 12 13 13 14 15 13 16 14 14 12 17 17 15 14 13 14 14 14 13 11 12 12 12 12 12 12 11 11 13 14 14 14 14 14 13 13 13 14 14 14 15 15
17 13 13 14 13 13 13 14 14 14 13 15 14 13 15 15 12 13 14 14 13 11 13 12 12 13 13 13 12 12 12 13 14 14 14 14 14 14 14 13 13 14 14 15
17 14 14 17 16 14 13 12 13 15 16 16 15 14 14 14 11 13 13 13 13 12 13 13 12 13 14 14 13 14 13 13 13 13 14 15 15 15 15 14 13 14 14 15
16 19 21 15 14 13 14 15 16 16 17 15 14 12 12 12 12 13 13 12 12 11 12 13 12 13 13 13 15 15 14 14 13 14 15 14 14 14 14 14 14 14 14 14
19 22 17 15 14 15 15 17 14 16 15 13 12 13 14 12 12 12 12 11 10 11 12 13 13 13 13 13 14 15 15 14 15 16 17 15 15 15 15 15 15 14 14 14
24 24 28 17 14 12 14 21 16 16 16 16 13 18 15 13 12 11 11 11 11 12 13 13 13 13 13 13 15 15 14 14 15 16 16 15 15 15 14 16 16 15 15 15
17 18 20 16 14 12 23 20 15 15 14 14 14 13 11 11 12 11 11 11 12 13 14 13 13 13 14 14 15 14 15 16 17 16 16 16 15 14 15 16 16 17 17 16
29 27 24 14 14 17 15 13 13 13 12 12 11 10 10 10 11 11 12 12 12 13 13 13 13 14 15 16 15 16 17 18 18 18 18 16 17 15 15 16 17 17 18 17
19 20 13 12 12 10 9 11 11 12 11 11 10 10 10 12 12 12 12 12 12 14 15 14 14 15 16 16 16 18 20 21 21 20 20 19 18 17 16 15 16 16 17 18
15 13 12 11 9 9 10 10 10 10 10 10 10 11 12 12 12 12 12 13 13 14 16 16 15 15 17 17 18 20 22 22 22 22 22 21 19 18 16 15 15 15 16 17
15 12 11 11 10 9 9 9 10 11 11 11 11 12 12 12 12 12 13 14 15 16 17 17 17 18 19 19 21 22 23 23 23 23 23 23 21 19 17 14 14 14 15 16
15 11 11 11 9 10 10 10 12 12 12 11 11 12 13 14 13 14 15 16 17 18 19 20 21 22 22 22 22 24 24 24 24 24 23 23 23 22 17 15 12 11 11 13
11 9 9 8 12 12 12 13 13 13 13 14 13 14 14 15 15 16 18 18 19 21 21 22 23 23 23 23 24 24 25 24 24 24 24 24 23 22 22 17 12 10 10 10
9 12 11 11 13 14 13 14 14 15 15 15 15 16 17 18 18 19 20 20 21 22 23 23 24 24 24 24 25 25 26 25 25 25 25 24 23 22 20 19 17 15 12 11
15 15 15 15 14 15 15 16 17 17 17 17 17 18 19 20 21 21 21 22 22 22 24 26 27 28 26 26 26 27 26 26 26 25 25 24 23 22 20 19 18 14 15 13
17 17 17 17 17 18 19 19 20 19 18 19 20 20 20 21 22 23 22 21 23 26 28 28 28 27 26 26 26 26 25 25 24 24 24 24 23 22 21 19 17 15 15 14
19 20 21 22 20 20 20 19 19 19 20 21 22 22 23 24 24 24 23 21 23 25 26 27 26 25 25 24 24 25 24 24 23 23 24 23 23 22 20 18 16 16 15 14
21 21 21 21 22 21 21 21 21 21 22 22 22 23 24 25 25 24 22 22 23 24 25 25 26 26 24 24 24 24 23 22 21 21 21 22 22 20 18 16 16 16 15 14
23 23 22 21 22 23 23 23 23 23 23 23 25 26 25 24 24 23 22 24 24 25 25 26 24 25 25 24 23 23 23 23 21 20 19 18 20 18 16 16 16 16 15 14
24 24 24 24 24 25 25 24 25 25 26 28 29 27 26 25 23 23 23 25 24 24 24 25 25 25 25 25 23 24 24 23 22 21 20 20 19 19 18 17 19 20 20 19
29 28 27 26 26 26 26 26 27 28 27 29 28 26 25 23 23 24 25 25 23 23 24 24 25 24 24 24 24 24 24 24 23 23 22 22 22 22 22 22 22 22 22 22
31 32 29 28 29 29 29 29 30 29 29 28 26 25 24 24 24 24 24 26 24 24 24 25 24 23 24 24 25 25 25 25 25 24 24 24 24 24 24 23 23 23 23 23
33 34 30 30 30 30 31 30 30 30 28 26 25 24 24 23 24 26 27 25 25 25 25 25 23 22 23 26 26 26 26 26 26 25 25 25 25 25 25 25 24 24 24 24
37 36 35 33 37 37 33 29 30 27 25 24 23 23 23 24 24 25 24 24 26 25 26 24 23 21 25 26 27 27 27 26 26 26 26 26 26 26 26 26 26 25 25 25
37 36 38 35 33 30 31 29 25 23 23 23 23 23 23 22 24 24 24 25 24 26 27 25 23 24 26 27 27 27 27 27 27 26 26 26 26 26 26 25 25 25 25 25
36 34 32 32 29 27 24 23 24 23 23 24 23 23 23 23 23 23 24 24 26 26 27 27 27 27 27 27 27 27 27 26 26 26 26 27 27 27 27 27 26 26 26 26
34 28 30 27 25 24 24 24 24 24 23 24 24 23 23 23 24 24 24 25 26 27 28 28 27 27 28 28 28 27 27 27 27 27 27 27 26 26 26 26 26 26 26 26

GFSNGP_con_lsi_006.txt.gz
Lid_Strength_Index
12 12 12 13 13 12 13 13 16 13 13 10 9 10 12 12 12 12 13 12 12 11 10 11 12 13 12 12 12 12 12 11 11 11 11 12 12 13 13 14 13 13 13 13
14 11 11 13 11 11 11 11 12 11 12 8 12 11 12 12 12 11 12 11 11 11 10 10 11 11 11 11 11 10 12 12 12 11 11 12 12 13 13 14 14 13 14 13
16 12 12 16 13 12 11 10 10 13 11 11 13 12 11 11 11 11 11 11 11 10 10 9 10 11 11 11 11 10 12 12 13 12 13 13 13 13 13 14 13 14 14 13
15 14 19 13 10 11 12 11 12 13 13 12 12 11 10 10 10 10 11 10 10 10 10 9 10 11 11 11 11 11 12 12 12 12 13 13 14 13 13 13 14 14 14 13
16 16 14 13 11 11 12 12 10 11 12 11 11 10 10 8 8 9 9 9 9 8 9 9 10 11 11 11 12 11 12 12 12 12 14 15 16 15 13 13 13 14 13 13
17 18 20 13 11 9 10 15 10 11 11 11 11 14 12 8 8 8 8 8 9 9 9 10 10 10 12 12 12 13 12 12 12 12 15 16 15 16 15 14 13 12 14 13
15 16 13 11 10 9 16 14 9 10 10 10 11 10 8 8 8 7 7 8 9 9 10 10 10 11 13 13 13 12 12 13 13 14 15 15 16 16 16 16 15 15 13 12
18 18 19 10 11 13 10 8 8 9 9 9 9 8 8 8 7 7 8 9 9 10 11 11 11 12 14 14 13 14 15 16 16 17 17 17 18 18 17 17 17 16 14 13
15 14 10 9 9 8 7 8 8 8 8 8 9 9 8 8 8 9 9 10 10 12 13 13 13 13 15 15 15 17 18 20 20 20 20 20 20 20 19 18 18 17 15 13
12 11 10 9 7 7 7 7 7 7 8 8 9 8 8 9 10 10 10 11 12 13 15 15 14 15 16 16 17 20 21 21 21 22 21 21 21 21 21 20 19 18 16 14
12 11 9 9 8 7 7 7 7 8 8 9 10 10 11 11 11 12 12 13 14 15 16 17 16 17 18 19 20 21 22 22 22 22 23 22 22 21 21 20 19 19 18 15
13 9 9 10 7 6 8 8 9 10 11 11 12 12 12 13 13 13 14 15 16 17 17 18 19 20 20 20 22 23 24 24 23 23 23 23 23 22 19 18 17 16 15 15
10 8 7 7 6 8 10 11 12 13 13 13 13 13 14 14 14 15 16 17 18 19 19 20 20 21 22 23 24 25 26 25 24 24 24 24 24 24 24 21 18 16 15 14
7 8 9 8 9 12 12 14 14 15 14 14 15 15 16 17 17 18 18 18 19 19 21 21 21 23 23 24 25 25 25 25 25 25 24 25 25 25 24 24 24 21 17 14
8 11 11 13 13 14 15 16 16 16 16 16 16 17 18 19 19 19 19 20 20 21 21 21 22 24 23 24 24 25 24 23 23 23 23 23 23 23 23 24 23 22 19 16
15 15 15 15 15 16 17 17 17 17 17 17 18 18 19 19 20 21 21 21 22 22 21 21 22 23 23 25 25 24 23 23 22 22 21 21 21 22 22 22 22 21 19 17
16 17 18 18 17 17 18 18 18 18 19 20 20 20 21 22 22 23 22 22 21 21 21 22 22 22 24 24 24 24 23 22 21 20 20 20 20 21 21 21 21 19 17 13
19 19 19 19 19 19 19 19 19 20 21 21 21 21 22 24 24 23 22 22 21 21 21 20 22 23 23 24 24 23 23 22 22 21 19 19 18 18 19 19 19 17 15 13
22 21 21 20 20 21 22 22 21 21 22 22 23 24 23 24 23 23 22 23 23 23 21 21 20 22 23 23 22 23 23 23 22 21 20 19 18 17 17 17 15 15 15 15
23 23 23 23 23 23 23 23 23 23 24 24 26 26 26 25 24 23 23 23 22 21 22 23 23 23 22 22 22 22 23 23 23 22 22 21 20 20 19 19 19 18 18 18
25 25 25 25 24 24 25 24 25 26 25 25 27 26 26 24 23 23 23 23 21 22 23 23 23 22 22 23 23 23 23 23 22 23 23 23 22 22 21 21 20 21 21 20
26 27 26 26 26 26 26 27 26 27 27 26 26 26 26 24 22 22 22 23 21 22 23 23 23 22 22 24 24 24 24 24 23 23 23 23 24 23 23 23 22 22 22 22
27 28 27 27 27 26 28 27 27 26 27 26 25 23 21 21 22 23 23 21 22 23 23 23 23 21 22 23 24 24 24 24 24 23 23 23 23 23 24 24 23 23 23 23
28 29 29 28 31 30 27 23 25 24 26 24 22 20 21 22 22 21 21 22 23 23 24 23 23 21 24 24 24 24 24 24 24 24 24 24 23 23 23 23 23 23 23 23
31 30 30 30 27 24 26 23 24 23 21 20 20 20 21 21 23 22 21 22 22 23 23 24 22 23 24 24 25 25 24 24 25 24 24 24 24 24 24 24 23 23 23 23
27 25 26 27 26 24 23 22 22 21 21 22 21 21 21 21 21 21 22 22 23 24 24 24 24 25 24 25 25 25 25 25 25 25 25 25 24 24 23 23 23 23 23 24
27 26 25 24 23 23 22 22 23 23 22 22 23 22 22 22 22 23 23 24 24 24 25 25 25 25 26 25 25 25 25 25 26 26 25 25 25 24 24 23 23 23 23 23

GFSNGP_con_lsi_009.txt.gz
Lid_Strength_Index
11 11 11 11 12 11 13 12 15 13 13 10 9 8 8 7 10 11 11 12 11 11 10 10 9 10 10 10 10 10 10 11 11 11 11 12 13 13 13 12 12 11 12 12
14 11 11 12 11 11 11 11 11 11 11 7 7 9 10 9 10 11 9 10 10 10 10 10 9 9 9 10 10 10 11 11 11 11 11 11 12 12 13 13 11 11 12 12
16 12 12 15 13 11 11 10 10 13 11 11 11 11 10 10 10 11 9 10 10 9 9 9 9 8 9 10 9 10 11 11 11 11 12 12 12 13 13 13 12 12 12 12
15 14 20 13 10 11 12 12 10 10 11 11 11 10 10 8 9 9 9 8 9 8 8 8 8 9 9 10 10 11 11 11 11 11 12 12 12 14 14 14 14 13 13 12
17 17 14 13 11 11 13 13 9 9 11 11 10 9 9 7 7 7 7 7 7 7 7 8 8 8 10 10 11 11 11 11 11 11 12 12 13 14 14 15 15 15 14 14
15 19 20 14 11 10 10 15 8 9 10 10 9 13 10 7 6 7 7 6 6 7 7 8 8 9 11 11 12 12 12 12 12 12 13 14 14 14 14 15 15 15 16 15
15 16 14 9 10 9 15 13 8 8 9 9 10 9 7 6 7 6 6 6 7 7 9 9 9 11 12 12 13 13 13 14 14 15 16 16 16 16 17 17 17 18 17 17
15 17 19 9 10 12 9 7 7 8 8 8 8 7 7 7 7 7 7 7 8 9 10 10 11 12 14 14 13 15 16 17 18 19 19 18 20 20 20 20 21 21 20 19
13 13 9 8 8 7 6 7 7 7 7 7 8 8 7 7 7 7 8 9 10 11 12 12 12 13 15 15 15 17 19 20 20 20 20 20 21 22 22 22 22 22 21 21
11 10 9 8 6 6 6 7 6 6 7 7 8 8 8 8 8 9 10 11 12 13 14 15 14 14 15 16 17 19 21 21 21 22 22 22 22 22 23 23 23 23 22 22
11 9 9 8 7 7 6 6 7 6 7 8 8 8 9 10 11 11 12 12 13 14 15 15 15 16 16 17 18 20 21 22 23 22 22 22 22 22 22 22 21 23 22 22
12 8 9 9 7 6 7 7 7 8 9 10 11 11 12 12 12 13 13 14 15 15 16 16 17 17 18 18 19 22 23 24 24 24 23 23 23 23 19 19 18 17 17 17
8 7 7 7 6 6 7 8 9 10 11 11 12 13 14 14 13 14 15 15 16 17 17 18 18 19 19 19 21 23 25 25 25 24 24 24 23 24 24 22 18 18 18 17
6 7 8 7 8 8 10 11 13 14 14 14 14 15 15 16 16 16 16 16 17 18 19 20 20 20 19 19 21 23 24 25 24 24 23 22 22 22 22 23 24 23 20 19
6 6 7 9 10 12 13 14 15 14 14 15 15 16 17 17 18 17 17 18 19 20 20 20 21 21 19 20 22 23 25 25 24 23 22 21 20 20 20 21 21 21 21 19
7 13 13 13 12 13 14 15 16 15 16 16 17 17 18 18 19 20 19 19 21 20 21 21 21 20 20 21 22 22 23 24 23 22 21 21 20 20 20 20 20 20 21 21
13 14 16 16 15 14 16 16 17 17 17 18 18 19 20 21 22 22 22 21 20 21 20 21 20 20 21 21 23 23 22 22 22 22 22 21 20 19 18 18 19 20 19 18
15 16 17 17 15 16 17 18 18 18 19 19 20 21 22 24 23 23 22 21 21 21 21 20 21 21 21 22 22 21 22 22 22 22 21 21 21 19 18 18 18 17 16 15
19 19 19 19 19 19 20 20 20 20 20 21 22 23 22 23 22 22 21 22 22 22 20 21 19 22 23 22 20 22 22 22 23 22 21 21 21 21 20 20 19 19 18 18
22 21 21 22 22 22 22 21 21 22 22 23 25 26 25 24 24 23 22 22 21 20 21 22 23 22 22 21 22 22 22 23 23 23 22 22 21 21 21 21 21 21 21 20
23 23 23 23 23 22 23 23 24 24 23 24 25 25 25 24 23 23 22 21 19 21 22 22 22 22 21 22 22 22 22 23 23 23 23 23 23 22 22 22 23 22 22 22
24 25 24 24 24 24 23 25 24 25 25 25 25 25 26 25 23 22 20 21 20 21 22 21 21 22 22 23 22 22 23 23 23 23 23 23 23 23 23 22 22 23 22 22
25 25 24 25 25 24 26 26 25 25 25 25 25 24 22 20 19 20 20 19 20 21 21 22 22 21 21 22 22 23 23 23 24 24 23 24 23 23 23 22 22 22 22 22
26 26 26 26 29 28 26 22 24 22 25 25 24 23 21 20 19 18 18 20 21 21 22 22 21 20 23 23 23 23 24 24 24 24 24 24 24 23 23 23 23 22 22 22
28 28 28 29 25 22 24 22 23 22 22 20 19 19 19 18 20 19 20 20 20 22 22 21 21 22 23 23 24 24 24 24 25 25 25 25 25 24 23 23 23 23 23 23
25 23 23 25 24 23 22 21 21 20 20 20 20 19 19 19 20 20 20 21 22 22 22 23 23 24 24 24 24 24 24 24 25 25 25 25 24 24 23 23 23 23 23 23
25 25 23 22 22 22 22 22 22 21 21 21 21 20 20 21 21 21 22 22 23 23 23 24 24 24 25 25 25 25 25 25 25 26 26 25 25 25 24 24 23 23 23 23